COSMOS 2251 DEB, 34609

Orbit data source: Space-Track

COSMOS 2251 DEB, 34609 is space debris in LEO originally from a launch on Wed, 16 Jun 1993 UTC launched from the Plesetsk Missile And Space Complex (PKMTR). The debris from Iridium 33, an American commercial communications satellite, has been tracked extensively since its accidental collision with the defunct Russian satellite Cosmos 2251 in 2009. This event, occurring at high speed in low Earth orbit (LEO), generated thousands of pieces of space debris, significantly increasing the risk of further collisions. The Iridium 33 debris cloud has impacted space traffic management and orbital debris mitigation strategies, making it a subject of ongoing study in space situational awareness.

Loading next visibility...
Identifier
34609, 1993-036WE
Orbit
LEO
Country
Flag of CISCIS
Related business
Manufacturer
Unknown
Mission
Spacecraft
Bus & Motor
Unknown
Mass
Unknown
Launch date (UTC)
1993-06-16 (32 years ago)
Launch vehicle
Unknown
Launch site
Plesetsk Missile And Space Complex (PKMTR)
Object type
Payload
Rocket body
Debris
Shape & HBR
Unknown shape, 0.1 m
Radar Cross Section
Small (<0.1 m²)

Expand to show TLE details & history
Last TLE update: 17 hours ago

TLE from 17 hours ago
0 COSMOS 2251 DEB
1 34609U 93036WE  25290.87172682  .00003134  00000-0  13017-2 0  9997
2 34609  73.7338 208.7991 0142436  77.3844 349.2005 14.21516651858381
Epoch: 2025-10-17T20:55Z
TLE epoch observation values (Epoch: 2025-10-17T20:55:17.197Z)
Latitude
61.60696°
Longitude
-99.16112°
Altitude
729.716 km
Speed
7.549 km/s
True Right ascension
16h 05m 05s
True Declination
61° 27' 44"
Sunlit
Object was in daylight at epoch
Visualization orbit readout
Latitude
Unknown
Longitude
Unknown
Altitude
Unknown
Speed
Unknown
Apparent Right ascension
Unknown
Apparent Declination
Unknown
Sunlit
N/A
Visualization observer readout
Local Sidereal Time
09:05:21
Azimuth
Unknown
Elevation
Unknown
Doppler factor
Unknown
Orbital elements
Apogee altitude
920.391 km
Perigee altitude
715.396 km
Semi-major axis
7,196.03 km
Eccentricity
0.01424
Inclination
73.7338°
RAAN
208.7991°
Arg. of periapsis
77.3844°
True anomaly
348.88923°
Mean anomaly
349.2005°
Eccentric anomaly
349.04542°
Mean motion
3.55552 °/min
Orbital period
101.25 mins
BSTAR
0.0013017

Documentation

Showing up to 5 results
|